CDT,Max TemperatureF,Mean TemperatureF,Min TemperatureF,Max Dew PointF,MeanDew PointF,Min DewpointF,Max Humidity, Mean Humidity, Min Humidity, Max Sea Level PressureIn, Mean Sea Level PressureIn, Min Sea Level PressureIn, Max VisibilityMiles, Mean VisibilityMiles, Min VisibilityMiles, Max Wind SpeedMPH, Mean Wind SpeedMPH, Max Gust SpeedMPH,PrecipitationIn, CloudCover, Events, WindDirDegrees
2012-3-1,72,51,30,37,32,28,92,56,20,29.90,29.68,29.50,10,10,10,21,10,26,0.00,0,,62
2012-3-2,55,45,34,37,30,19,92,59,26,29.99,29.77,29.56,10,8,2,21,10,26,0.12,4,Rain-Snow,327
2012-3-3,48,39,29,25,19,14,75,51,26,30.08,30.01,29.97,10,10,9,20,8,26,0.00,2,,290
2012-3-4,67,48,29,32,26,21,78,52,26,30.24,29.98,29.86,10,10,10,37,12,48,0.00,1,,307
2012-3-5,63,45,26,34,25,20,85,53,20,30.35,30.18,29.91,10,10,10,23,9,32,0.00,0,,161
2012-3-6,73,65,56,49,41,34,56,42,27,29.89,29.79,29.72,10,10,10,31,19,44,0.00,0,,190
2012-3-7,72,58,43,54,47,34,71,62,53,30.02,29.79,29.71,10,10,10,25,16,38,T,6,Rain,234
2012-3-8,52,42,31,27,23,15,78,51,24,30.53,30.43,30.37,10,10,10,21,8,28,0.45,0,,9
2012-3-9,65,46,26,28,24,16,92,54,16,30.59,30.50,30.40,10,10,8,12,2,15,0.00,0,,207
2012-3-10,66,50,34,33,30,28,75,50,24,30.39,30.26,30.12,10,10,10,20,7,26,0.00,0,,188
2012-3-11,51,49,47,49,46,33,93,72,50,30.10,29.95,29.80,10,7,2,15,7,20,0.33,8,Rain,150
2012-3-12,77,62,46,49,47,39,93,60,27,29.97,29.80,29.74,10,9,2,17,7,23,0.37,5,Rain,219
2012-3-13,82,62,41,59,50,40,96,64,31,30.04,29.94,29.85,10,10,10,24,8,31,0.00,0,,157
2012-3-14,84,74,63,63,61,58,90,67,43,29.96,29.88,29.82,10,10,10,23,12,31,0.00,3,,202
2012-3-15,79,68,56,64,61,56,100,79,58,30.01,29.97,29.91,10,9,2,18,7,23,0.00,4,,176
2012-3-16,81,71,60,64,62,60,93,72,51,29.98,29.92,29.84,10,9,7,20,11,30,0.00,3,,188
2012-3-17,77,71,64,64,62,60,87,74,60,29.89,29.85,29.79,10,10,10,22,13,32,0.00,6,,162
2012-3-18,74,72,69,62,60,59,73,69,64,29.88,29.81,29.74,10,10,10,23,14,30,0.00,7,,177
2012-3-19,71,65,58,61,58,54,97,82,66,29.76,29.72,29.66,10,7,2,25,10,33,0.93,7,Rain-Thunderstorm,173
2012-3-20,61,59,56,57,56,54,100,92,84,29.85,29.79,29.65,10,8,2,14,5,20,0.25,8,Rain,115
2012-3-21,64,59,53,61,57,52,100,94,87,29.89,29.81,29.68,10,8,2,22,7,29,0.44,8,Rain,88
2012-3-22,65,55,44,54,49,44,100,78,56,29.95,29.89,29.83,10,9,5,32,8,46,0.16,4,Rain-Thunderstorm,103
2012-3-23,67,59,50,52,50,47,100,78,56,29.96,29.89,29.83,10,10,5,13,5,16,T,6,Rain,19
2012-3-24,76,62,48,53,48,46,93,65,36,30.03,29.99,29.95,10,9,6,13,6,16,0.00,0,,274
2012-3-25,79,62,45,54,49,45,100,66,32,30.12,30.05,29.99,10,6,0,12,3,16,0.00,0,Fog,159
2012-3-26,81,67,53,56,53,50,93,66,39,30.06,29.97,29.83,10,10,10,21,9,28,0.00,0,,146
2012-3-27,78,68,57,61,58,55,93,74,54,29.95,29.90,29.83,10,9,2,17,8,26,0.36,4,Rain-Thunderstorm,198
2012-3-28,80,66,52,66,57,52,100,77,54,30.00,29.95,29.84,10,5,0,17,5,21,0.05,2,Fog-Thunderstorm,94
2012-3-29,82,71,60,64,60,57,93,72,51,29.87,29.77,29.64,10,10,10,24,12,33,0.00,4,,143
2012-3-30,79,68,57,61,56,44,97,64,30,29.86,29.78,29.71,10,7,2,13,4,21,0.00,2,,335
2012-3-31,85,70,54,61,56,51,93,65,37,29.83,29.76,29.69,10,10,8,14,4,18,0.00,0,,205